カタログに戻る

ARIANE 44L DEB

運用中HEO
NORAD 28575·DEBRIS·🇫🇷 France

打ち上げ Oct 29, 1991 から Guiana Space Centre

Loading…

次のパス (今後24時間)

TLE

最新Source: Space-Track

元期: Sep 14, 2026, 12:11 UTC

1 28575U 91075M   26257.50779529 -.00000250  00000-0 -66287-2 0  9995
2 28575   6.3434 330.7172 6588699 115.6109  17.7929  2.82845460253011

AllMySatでARIANE 44L DEBをリアルタイム追跡

Download on the App Store